Theta_e
307 306 306 306 306 306 307 307 306 305 305 306 306 307 308 308 307 308 308 308 310 312 313 315 316 318 318 317 317 319 315 315 312 313 314 311 314 317 318 320 321 322 323 324 324
307 307 306 306 305 305 306 307 306 306 306 308 309 308 309 308 308 308 308 310 312 313 313 314 315 317 317 315 315 315 313 313 308 308 309 310 309 314 316 319 319 319 318 319 321
305 306 307 306 306 305 306 306 306 306 308 308 308 309 309 309 308 308 308 310 312 313 313 314 314 315 313 312 311 309 313 309 308 309 308 308 309 309 309 309 315 317 317 318 320
305 306 307 307 306 306 306 306 306 306 306 307 309 309 310 310 306 307 308 310 311 312 313 313 314 313 310 310 310 309 308 309 308 307 308 307 307 307 308 310 313 315 317 318 317
305 306 307 307 307 306 306 307 307 308 310 309 309 308 307 308 307 307 308 309 311 312 312 313 313 312 309 309 309 308 308 308 307 307 307 306 306 305 306 307 309 311 315 317 317
305 307 308 307 307 307 308 308 310 310 310 309 308 308 308 306 308 308 308 309 310 310 311 311 312 312 310 308 308 308 307 307 307 307 307 305 305 305 307 308 307 311 312 316 317
306 308 309 309 308 308 308 309 309 309 309 309 309 309 309 307 309 308 308 309 310 311 311 311 311 311 308 308 309 309 309 308 308 308 307 305 305 304 309 308 307 309 310 312 313
306 308 309 310 309 309 309 309 309 310 309 310 310 309 308 308 309 310 310 310 310 310 311 312 313 311 309 310 311 310 310 310 309 306 307 307 306 305 308 309 309 309 310 311 311
305 307 310 310 310 310 310 309 310 310 310 310 309 309 307 308 309 310 311 311 313 313 313 312 312 308 309 311 307 303 305 307 305 303 303 306 304 304 307 307 308 309 309 309 311
306 306 307 307 307 306 306 308 310 310 309 308 308 309 307 306 307 309 311 311 312 311 310 310 306 300 299 303 303 305 304 304 304 303 302 301 302 302 303 303 304 305 306 306 308
307 307 306 306 307 308 307 308 307 305 305 303 304 304 304 305 306 308 309 308 310 308 305 303 300 300 302 302 303 303 303 303 302 302 299 300 299 301 303 302 302 303 304 305 306
307 307 306 306 307 308 307 307 306 306 304 305 305 305 305 304 306 307 307 307 307 303 306 301 300 301 301 302 302 303 305 302 300 301 299 300 303 301 303 302 303 303 304 306 307
307 307 307 307 307 307 308 307 307 307 306 305 305 305 306 305 304 304 307 305 303 301 299 302 302 301 302 300 301 302 304 302 301 299 300 300 305 307 305 303 302 303 304 305 306
307 307 308 307 307 307 307 306 306 310 301 302 305 305 305 306 304 305 305 306 303 302 301 301 302 302 303 301 300 301 302 301 300 300 301 300 309 304 306 304 302 302 302 303 304
307 307 307 308 308 307 306 306 306 312 302 302 304 305 305 304 303 304 304 305 303 303 305 303 300 301 302 301 300 300 300 300 301 300 303 303 301 305 305 306 303 299 300 301 302
306 306 306 307 307 307 306 306 311 305 301 301 303 302 302 303 303 306 303 304 304 304 301 301 301 298 298 299 299 299 302 301 299 299 304 297 300 308 306 306 302 298 299 299 299
307 306 306 306 307 306 306 310 306 303 298 300 301 301 300 299 302 301 300 297 299 302 301 300 302 299 298 299 300 298 301 304 309 306 311 288 299 307 305 302 301 297 298 299 298
307 307 306 306 307 306 308 304 301 293 296 301 302 303 303 300 301 300 301 298 297 298 298 299 306 298 297 298 298 300 300 304 306 307 307 290 302 307 301 299 299 299 298 298 298
308 310 308 306 306 307 308 300 298 299 302 301 302 299 299 300 300 300 299 300 299 297 301 299 305 298 296 297 297 301 298 298 294 284 296 302 304 305 299 298 296 297 298 298 298
310 312 310 307 306 307 303 298 296 300 302 302 303 300 297 298 301 301 299 299 300 298 299 298 299 296 298 297 297 300 298 300 298 301 305 305 299 308 302 297 295 295 297 299 298
313 313 313 308 307 306 299 290 295 301 301 302 301 297 301 299 300 301 301 300 300 299 298 297 296 303 298 296 299 296 297 296 298 301 301 299 307 302 303 297 296 295 299 300 298
317 315 315 311 309 297 293 293 301 302 302 301 301 301 301 300 301 296 301 300 299 299 299 298 298 297 303 299 297 299 300 298 302 303 297 298 304 298 294 290 296 298 301 299 296
317 316 320 314 303 293 297 299 302 301 300 300 300 300 298 295 299 300 300 300 299 299 299 298 297 303 312 304 297 295 296 297 294 297 298 300 308 292 289 291 296 298 299 298 294
317 309 317 314 304 300 297 299 300 301 301 300 300 300 299 295 297 297 301 299 299 299 298 297 298 301 312 311 300 300 298 297 295 292 298 300 308 308 305 292 296 297 298 298 293
317 309 310 305 305 303 301 299 301 300 301 300 299 299 298 298 300 294 299 299 299 300 298 296 294 296 296 297 294 300 300 296 295 297 301 311 304 307 307 302 302 301 299 294 292
317 315 309 305 305 305 302 302 300 299 301 301 299 300 298 297 303 304 300 300 300 298 297 295 295 290 295 297 298 299 300 297 298 299 295 299 301 302 302 301 297 299 296 293 293
318 317 315 306 304 306 306 303 303 302 303 302 301 299 299 299 301 301 301 299 299 298 298 293 290 290 299 292 296 307 308 300 296 294 298 302 306 294 293 295 297 298 297 296 295
Wind_Speed
13 12 11 11 9 8 6 7 9 11 15 16 17 17 20 17 10 10 10 9 9 10 10 11 10 10 8 6 5 2 4 2 5 7 2 2 1 2 0 1 3 4 3 6 6
13 12 13 15 13 10 9 10 13 14 16 18 18 18 12 14 18 16 13 11 11 10 11 10 9 8 5 3 4 5 3 7 3 1 1 2 1 1 1 3 4 7 8 8 9
13 12 12 13 14 14 14 14 16 16 18 15 11 8 7 8 11 11 10 12 11 11 10 9 9 7 5 5 7 4 3 3 1 1 2 3 3 2 2 4 12 14 13 11 12
12 12 14 16 17 17 17 18 19 18 10 10 10 8 5 4 4 6 10 11 11 11 8 5 5 3 4 4 5 5 4 2 2 3 3 2 7 6 10 8 7 7 9 13 13
13 12 14 16 18 17 16 16 16 14 12 11 9 10 12 17 9 9 10 8 8 8 7 6 5 5 5 4 3 4 2 4 2 2 4 7 8 9 19 15 14 13 11 14 14
16 13 15 16 17 18 19 19 18 16 16 13 12 14 18 21 13 12 9 8 7 4 4 3 6 11 10 5 4 4 4 2 1 3 5 4 5 4 4 2 18 17 17 15 18
17 14 15 15 16 19 19 18 17 14 15 23 25 29 32 15 15 15 12 11 13 11 13 10 5 2 5 4 5 4 1 1 2 5 3 9 5 7 8 12 14 19 19 19 20
16 12 11 13 15 15 15 15 14 14 17 18 20 21 14 15 15 12 16 16 13 14 16 14 12 17 7 8 4 4 4 5 2 8 2 4 9 6 7 8 16 19 18 18 19
14 14 13 13 12 11 11 13 14 13 11 9 7 12 6 10 12 12 11 11 13 13 11 9 10 9 5 4 5 8 1 3 7 4 4 1 11 8 7 12 20 20 19 20 19
10 12 13 14 13 13 17 12 5 8 9 8 7 8 8 10 11 9 8 7 6 5 4 6 9 5 5 6 1 3 3 4 6 4 2 8 23 14 26 21 25 25 26 23 21
10 8 7 2 3 3 1 1 4 15 31 17 14 9 10 8 16 10 4 5 6 10 6 9 9 3 2 1 2 3 3 5 5 1 7 4 13 18 22 7 11 16 18 19 19
10 9 10 12 8 3 3 7 10 14 16 19 21 13 20 12 7 15 11 6 8 3 5 7 3 3 3 2 2 4 3 5 8 2 3 8 19 8 3 2 3 5 7 10 9
7 4 9 14 14 11 14 16 12 9 7 11 17 14 12 12 11 18 12 5 7 7 7 6 1 3 1 4 4 1 0 3 5 9 2 8 7 4 1 2 3 6 4 3 4
6 3 7 8 3 4 4 4 2 2 6 13 12 10 13 4 7 17 13 5 7 3 2 5 2 2 1 4 3 4 1 2 5 5 3 6 4 5 2 1 4 6 6 4 2
12 6 3 9 4 8 5 4 3 3 6 8 7 8 8 8 4 14 13 6 4 2 2 1 6 5 6 1 1 4 2 4 1 3 3 5 3 8 2 3 2 2 4 5 2
20 11 3 3 5 6 6 5 4 7 1 6 7 10 6 12 7 10 9 8 5 3 6 3 2 2 2 3 3 3 1 2 3 2 3 2 3 6 3 3 3 3 2 2 1
24 15 9 4 6 6 5 3 6 7 4 7 4 6 1 7 8 10 5 9 5 5 7 5 2 2 3 3 1 5 5 4 6 5 5 1 1 11 5 4 4 10 6 3 1
9 24 16 10 6 4 2 6 10 3 4 2 3 2 5 7 5 8 3 6 6 5 3 4 6 4 7 4 1 4 3 4 4 3 5 1 6 6 1 0 2 8 8 5 3
5 17 23 13 6 2 1 7 7 6 2 5 3 6 6 5 3 5 5 2 2 5 4 5 4 2 4 3 2 3 4 2 5 1 3 4 8 9 2 3 6 10 11 7 8
7 5 29 12 7 4 7 4 2 2 1 1 3 2 3 6 5 5 5 3 4 4 2 1 4 0 2 0 3 3 1 4 3 4 6 6 7 6 6 9 7 10 16 10 12
9 3 27 13 8 10 5 4 3 2 1 1 3 2 1 1 1 3 2 1 0 1 2 4 3 4 1 3 5 2 2 3 3 4 4 3 8 7 8 7 12 16 16 11 14
12 5 25 12 8 6 3 4 2 1 1 1 2 2 2 2 1 1 2 4 0 1 2 3 4 4 8 1 2 1 4 4 4 6 3 2 10 3 4 5 15 20 13 13 15
5 7 19 13 4 2 1 1 1 1 1 1 2 2 2 3 3 1 1 1 3 4 2 1 2 5 9 1 2 3 4 3 3 2 7 3 8 3 5 6 18 19 17 16 14
4 3 9 16 10 7 4 1 1 1 2 2 3 2 3 3 2 2 1 1 1 1 1 2 1 7 6 8 1 5 5 5 5 3 4 13 26 25 20 8 17 24 23 20 14
6 3 3 2 6 6 3 5 2 1 0 1 2 3 4 1 2 2 2 2 1 3 2 4 4 3 7 13 5 15 19 8 13 12 9 28 11 25 22 8 18 20 18 13 13
3 1 3 3 2 2 1 5 7 3 5 2 3 3 5 4 6 5 4 4 5 3 4 1 3 2 6 7 5 10 19 13 20 18 14 26 32 33 45 31 22 16 11 13 13
3 2 1 0 1 2 4 5 6 6 6 4 7 5 5 9 12 8 8 6 5 7 6 4 4 2 7 3 9 10 12 11 7 6 6 8 22 2 4 6 12 13 14 14 12
Wind_Direction
44 54 61 62 61 72 86 96 105 115 116 117 121 113 101 93 98 127 95 75 97 110 117 125 129 130 118 84 63 82 66 149 186 164 210 181 177 223 258 184 214 227 236 254 220
39 53 61 66 64 74 90 101 111 115 120 117 120 119 104 92 83 95 84 91 110 114 117 122 136 139 88 45 31 73 100 203 185 55 117 168 219 20 273 216 245 245 241 230 206
38 53 65 63 64 80 92 102 112 113 119 108 112 122 128 106 68 44 92 114 116 116 121 119 122 115 78 42 18 44 133 147 81 72 14 353 320 266 248 260 232 228 230 207 209
50 61 70 73 76 87 94 103 111 119 115 116 116 123 154 159 91 41 97 113 119 124 127 126 131 86 67 63 30 80 51 68 48 22 9 339 308 295 238 242 265 255 240 217 213
55 64 75 81 83 85 94 106 108 106 103 115 123 112 114 91 51 74 93 110 119 130 126 121 121 110 91 76 60 70 66 50 57 9 321 297 279 263 267 262 253 261 229 224 217
54 75 81 82 84 89 96 102 101 98 95 100 103 103 102 73 58 66 88 93 106 136 128 119 102 105 91 64 60 75 104 118 3 342 314 321 279 326 262 321 233 229 238 226 228
59 76 86 88 89 97 96 100 104 101 94 100 97 92 76 71 67 73 88 92 91 88 94 86 82 105 106 94 103 126 78 12 9 357 317 318 287 224 269 268 230 226 223 227 235
62 76 79 92 99 101 95 100 99 102 105 99 79 77 76 68 71 87 85 86 94 91 92 84 83 75 56 109 49 26 44 14 9 349 342 16 270 250 308 233 244 232 231 232 239
65 69 88 92 99 100 99 105 102 104 105 88 82 75 52 62 71 78 85 85 92 91 85 80 76 65 38 57 23 11 16 342 313 51 301 342 273 265 269 266 253 243 245 246 247
77 80 98 109 98 91 88 111 116 113 101 73 49 77 49 28 41 52 71 81 94 93 67 53 60 66 24 52 182 299 335 301 252 327 326 258 263 281 282 271 264 263 264 260 254
56 73 87 150 213 186 200 168 91 62 68 69 66 73 37 58 49 34 61 64 68 58 42 30 67 83 264 18 214 226 244 252 260 39 330 240 286 296 314 293 277 272 271 266 250
43 65 80 81 107 121 148 122 114 116 76 59 61 55 41 37 51 53 55 63 50 59 340 31 76 242 285 329 266 222 268 297 287 314 6 335 302 283 307 35 22 13 342 239 236
32 83 118 111 102 94 91 101 105 102 81 37 34 31 22 31 42 13 25 47 64 46 22 106 177 308 248 40 24 38 291 336 261 327 232 319 293 315 318 80 63 60 74 77 233
39 126 179 175 165 152 114 115 118 78 74 335 355 20 357 19 45 20 24 51 37 157 119 102 332 324 17 77 28 335 144 260 294 17 283 17 276 306 324 106 49 52 76 90 119
47 73 138 193 206 185 183 178 163 136 57 313 332 350 5 66 332 15 21 55 80 62 92 337 13 11 43 341 140 247 299 303 49 85 13 336 77 269 345 257 178 76 97 91 118
38 44 78 127 169 161 160 151 135 44 293 338 333 354 16 19 20 349 25 58 73 79 39 73 48 58 283 288 224 320 118 55 62 98 19 284 82 283 246 235 204 184 135 87 77
33 44 45 114 131 144 147 140 41 93 349 318 334 9 54 352 1 22 40 21 47 45 8 348 8 342 15 322 201 29 43 345 356 9 233 282 19 248 251 260 230 185 182 158 133
42 37 49 68 95 130 144 55 68 247 243 339 329 309 65 357 10 360 50 31 35 41 74 63 329 11 355 52 306 22 108 139 270 280 282 16 233 256 210 275 178 177 179 174 279
27 31 33 36 51 82 170 52 180 197 274 343 319 60 342 8 47 50 41 52 1 15 74 18 284 65 35 360 48 321 46 149 96 59 32 275 286 289 184 248 192 184 193 227 277
33 30 17 22 38 79 72 156 163 238 305 206 75 81 14 328 29 40 6 326 9 47 82 131 331 346 285 25 53 92 139 27 16 338 302 284 279 243 258 234 218 208 219 247 282
22 58 6 17 50 58 96 195 218 219 263 38 142 96 94 353 25 34 347 222 27 331 71 136 113 278 91 185 183 51 17 44 135 149 209 288 267 219 231 214 203 215 221 261 288
27 41 6 26 37 51 76 184 130 163 56 42 80 104 162 161 130 95 227 210 200 175 163 209 161 252 237 106 354 333 212 164 132 267 235 162 266 245 242 247 203 209 247 282 294
43 24 22 39 84 20 28 42 147 137 70 85 97 48 106 134 59 277 260 68 1 15 21 57 337 347 340 52 65 209 215 161 97 59 225 154 265 320 295 261 221 239 262 280 275
19 28 29 53 72 114 135 285 13 141 151 138 150 169 156 48 16 243 295 65 72 108 58 91 197 184 214 231 130 251 223 201 147 156 210 233 270 276 277 251 256 259 271 271 254
34 70 35 324 23 89 99 160 126 302 183 212 360 224 157 53 339 261 212 154 173 188 161 131 222 229 252 267 221 261 255 196 206 220 213 270 250 273 276 270 282 287 286 246 246
49 81 83 97 102 127 78 211 174 248 157 220 190 181 172 180 200 235 176 209 213 186 166 46 283 43 286 276 275 272 261 226 235 251 251 261 277 267 274 277 269 263 254 252 253
63 85 20 115 110 89 221 181 214 171 209 217 192 149 207 239 243 246 226 220 218 167 187 150 142 69 264 345 324 286 253 188 205 215 179 208 247 336 274 228 254 269 259 258 272